Weather History for New Delhi, India

Change the Weather History Date:

Monday, April 21, 2014

  Actual Average Record
Temperature  
Mean Temperature 84 °F -  
Max Temperature 98 °F 100 °F 109 °F (2002)
Min Temperature 69 °F 77 °F 68 °F (2001)
Cooling Degree Days 18    
Growing Degree Days 34 (Base 50)    
Moisture  
Dew Point 44 °F    
Average Humidity 27    
Maximum Humidity 47    
Minimum Humidity 13    
Precipitation  
Precipitation 0.00 in - - ()
Sea Level Pressure  
Sea Level Pressure 29.86 in    
Wind  
Wind Speed 3 mph ()    
Max Wind Speed 16 mph    
Max Gust Speed 18 mph    
Visibility 1.6 miles    
Events      
Averages and records for this station are not official NWS values.
T = Trace of Precipitation, MM = Missing Value Source: Averaged Metar Reports

Daily Weather History Graph

Daily Weather History Graph

Search for Another Location

Airport:

Trip Planner

Search our weather history database for the weather conditions in past years. The results will help you decide how hot, cold, wet, or windy it might be!

Date:

Astronomy

Apr. 21, 2014 Rise Set
Actual Time 5:50 AM IST 6:50 PM IST
Civil Twilight 5:26 AM IST 7:15 PM IST
Nautical Twilight 4:57 AM IST 7:43 PM IST
Astronomical Twilight 4:27 AM IST 8:13 PM IST
Moon No Moon Rise 10:53 AM IST (4/21)
Length of Visible Light 13h 49m
Length of Day
13h 00m
Waning Gibbous, 62% of the Moon is Illuminated
Apr 21
Waning Gibbous
Apr 22
Last Quarter
Apr 29
New
May 7
First Quarter
May 15
Full

Hourly Weather History & Observations

Time (IST) Temp. Dew Point Humidity Pressure Visibility Wind Dir Wind Speed Gust Speed Precip Events Conditions
12:00 AM 78.8 °F 50.0 °F 36% 29.86 in 1.6 mi Calm Calm - N/A   Haze
12:30 AM 77.0 °F 50.0 °F 39% 29.86 in 1.6 mi Calm Calm - N/A   Haze
1:00 AM 77.0 °F 50.0 °F 39% 29.86 in 1.4 mi Calm Calm - N/A   Haze
1:30 AM 77.0 °F 50.0 °F 39% 29.86 in 1.2 mi Calm Calm - N/A   Haze
2:00 AM 75.2 °F 50.0 °F 41% 29.86 in 1.2 mi Calm Calm - N/A   Haze
2:30 AM 75.2 °F 51.8 °F 44% 29.83 in 1.2 mi Calm Calm - N/A   Haze
3:00 AM 75.2 °F 51.8 °F 44% 29.83 in 1.2 mi Calm Calm - N/A   Haze
3:30 AM 75.2 °F 53.6 °F 47% 29.83 in 1.2 mi Calm Calm - N/A   Haze
4:00 AM 75.2 °F 53.6 °F 47% 29.83 in 1.2 mi Calm Calm - N/A   Haze
4:30 AM 73.4 °F 48.2 °F 41% 29.83 in 1.2 mi Calm Calm - N/A   Haze
5:00 AM 73.4 °F 44.6 °F 36% 29.83 in 1.2 mi Calm Calm - N/A   Haze
5:30 AM 73.4 °F 44.6 °F 36% 29.86 in 1.4 mi SW 6.9 mph - N/A   Haze
6:00 AM 75.2 °F 44.6 °F 34% 29.86 in 1.4 mi SW 4.6 mph - N/A   Haze
6:30 AM 73.4 °F 46.4 °F 38% 29.86 in 1.4 mi WSW 4.6 mph - N/A   Haze
7:00 AM 73.4 °F 46.4 °F 38% 29.89 in 1.4 mi WSW 4.6 mph - N/A   Haze
7:30 AM 73.4 °F 46.4 °F 38% 29.89 in 1.2 mi WSW 6.9 mph - N/A   Haze
8:00 AM 69.8 °F 46.4 °F 43% 29.89 in 1.1 mi WSW 6.9 mph - N/A   Haze
8:30 AM 80.6 °F 46.4 °F 30% 29.89 in 1.1 mi West 6.9 mph - N/A   Haze
9:00 AM 82.4 °F 44.6 °F 26% 29.89 in 1.1 mi West 4.6 mph - N/A   Haze
9:30 AM 84.2 °F 44.6 °F 25% 29.92 in 1.1 mi WSW 6.9 mph - N/A   Haze
10:00 AM 86.0 °F 44.6 °F 23% 29.92 in 1.1 mi WNW 6.9 mph - N/A   Haze
12:00 PM 93.2 °F 41.0 °F 16% 29.92 in 1.6 mi NNW 6.9 mph - N/A   Haze
12:30 PM 95.0 °F 41.0 °F 15% 29.89 in 1.6 mi West 6.9 mph - N/A   Haze
1:00 PM 96.8 °F 41.0 °F 15% 29.89 in 1.7 mi WNW 10.4 mph - N/A   Haze
2:00 PM 98.6 °F 41.0 °F 14% 29.86 in 1.9 mi WNW 16.1 mph - N/A   Haze
2:30 PM 98.6 °F 41.0 °F 14% 29.83 in 1.9 mi WNW 6.9 mph 18.4 mph N/A   Haze
3:00 PM 98.6 °F 39.2 °F 13% 29.83 in 2.2 mi NW 5.8 mph 17.3 mph N/A   Haze
3:30 PM 80.6 °F 39.2 °F 23% 29.83 in 2.5 mi West 5.8 mph 17.3 mph N/A   Haze
4:00 PM 98.6 °F 39.2 °F 13% 29.83 in 2.5 mi NW 8.1 mph - N/A   Haze
4:30 PM 98.6 °F 39.2 °F 13% 29.83 in 2.5 mi NW 8.1 mph - N/A   Haze
5:00 PM 98.6 °F 39.2 °F 13% 29.83 in 2.5 mi NW 9.2 mph - N/A   Haze
5:30 PM 96.8 °F 39.2 °F 14% 29.83 in 2.5 mi WNW 11.5 mph - N/A   Haze
6:00 PM 96.8 °F 39.2 °F 14% 29.83 in 2.5 mi WNW 9.2 mph - N/A   Haze
6:30 PM 93.2 °F 39.2 °F 15% 29.83 in 2.2 mi NW 6.9 mph - N/A   Haze
7:00 PM 91.4 °F 39.2 °F 16% 29.83 in 2.2 mi NW 6.9 mph - N/A   Haze
8:00 PM 87.8 °F 42.8 °F 21% 29.83 in 1.4 mi WSW 5.8 mph - N/A   Haze
8:30 PM 87.8 °F 44.6 °F 22% 29.86 in 1.6 mi West 3.5 mph - N/A   Haze
9:00 PM 86.0 °F 44.6 °F 23% 29.86 in 1.6 mi NW 4.6 mph - N/A   Haze
9:30 PM 86.0 °F 42.8 °F 22% 29.89 in 1.6 mi NNW 5.8 mph - N/A   Haze
10:00 PM 86.0 °F 41.0 °F 20% 29.89 in 1.3 mi North 5.8 mph - N/A   Haze
10:30 PM 86.0 °F 41.0 °F 20% 29.89 in 1.3 mi North 4.6 mph - N/A   Haze
11:00 PM 86.0 °F 41.0 °F 20% 29.89 in 1.3 mi North 4.6 mph - N/A   Haze
11:30 PM 86.0 °F 41.0 °F 20% 29.89 in 1.3 mi North 8.1 mph - N/A   Haze